Wind_Speed
10 10 8 6 5 3 3 2 3 2 2 2 2 2 3 4 4 3 4 5 5 6 6 5 4 4 5 5 4 5 4 2 5 7 4 10 6 6 6 5 11 10 6 5 19
10 8 9 8 5 3 2 2 2 2 3 3 2 3 3 3 4 4 5 6 5 6 7 6 5 5 4 3 2 4 4 9 5 5 3 8 6 12 6 7 9 11 14 9 16
8 8 7 7 7 5 3 1 2 3 3 4 4 4 3 2 2 4 6 6 6 6 7 6 5 4 4 3 2 3 5 4 4 4 4 6 5 10 8 4 14 18 17 16 15
6 6 5 5 5 5 4 2 1 3 4 5 5 4 3 2 4 3 4 5 7 8 8 6 6 4 3 3 2 2 1 4 3 3 4 5 5 6 15 12 6 16 12 17 19
8 7 6 6 6 5 4 3 3 2 4 5 5 5 3 2 3 4 3 3 6 8 9 8 7 5 5 5 3 3 5 3 2 2 2 4 6 10 13 20 15 9 14 18 21
9 10 9 9 8 8 7 6 5 4 4 5 5 5 3 2 5 7 4 3 5 8 8 9 6 6 7 3 3 2 3 1 2 4 4 3 3 3 5 17 18 18 17 17 21
7 9 11 11 11 10 10 10 9 8 6 6 6 6 5 7 5 8 7 6 6 7 9 8 9 5 7 4 4 2 0 4 2 2 2 1 6 10 19 14 11 18 19 20 22
1 3 6 9 10 11 12 12 12 11 10 8 6 6 5 6 8 8 9 8 7 7 7 7 6 7 3 8 4 3 4 1 2 3 2 4 7 10 6 16 25 23 22 23 25
4 4 3 3 5 6 8 12 12 12 12 10 9 4 4 6 11 13 11 10 9 7 7 6 6 4 5 5 4 6 3 3 7 6 1 4 6 6 4 7 17 21 26 27 27
11 5 7 5 2 2 4 7 10 10 11 11 12 5 10 6 9 14 14 11 7 8 7 5 4 4 3 3 5 6 3 3 5 2 1 3 13 11 18 16 20 21 22 26 30
23 19 7 7 4 2 4 2 2 3 7 7 4 3 2 7 8 11 15 13 10 6 4 3 5 6 12 5 3 5 2 3 4 3 3 7 11 12 25 22 27 30 31 33 35
22 24 21 19 9 3 2 2 2 1 6 10 17 19 13 7 5 13 17 12 7 5 5 5 5 10 6 6 4 4 3 5 6 3 4 8 14 16 12 22 33 36 42 44 41
15 18 19 16 12 15 9 3 3 7 2 7 13 13 20 18 7 15 21 12 5 6 8 8 5 6 7 5 6 4 6 5 7 3 3 6 7 8 8 23 34 42 48 44 43
12 6 21 14 18 20 17 7 1 8 3 6 5 7 16 14 7 16 22 7 4 12 9 6 5 6 5 5 8 5 8 5 4 3 4 1 6 8 7 13 7 29 34 39 42
11 10 10 13 6 10 6 3 8 3 4 4 2 2 7 9 7 9 25 11 8 8 8 8 10 7 5 8 8 7 5 6 3 3 4 2 4 7 0 8 11 23 37 36 35
11 11 12 10 11 4 7 9 11 4 8 3 6 4 4 2 3 4 9 3 5 5 2 3 1 6 8 3 4 9 6 6 4 2 4 9 7 9 6 7 6 11 27 28 23
10 10 11 11 4 9 6 20 3 6 1 5 4 4 6 5 2 2 5 5 7 5 8 2 4 3 4 6 4 2 6 1 3 0 9 2 5 18 6 9 8 13 30 24 17
13 11 11 11 12 8 12 4 6 4 7 3 3 3 6 5 3 4 6 5 6 2 3 8 8 11 7 9 9 9 8 6 8 4 4 3 8 7 9 17 25 31 34 33 27
14 12 13 10 11 15 8 8 7 6 3 6 2 2 3 3 5 4 8 6 8 11 9 6 6 2 2 2 9 6 8 3 1 3 2 6 9 9 9 13 16 27 25 22 19
12 10 18 12 10 17 5 10 5 6 5 3 6 7 8 5 6 8 9 5 6 12 4 5 4 0 1 2 2 6 6 3 1 4 4 6 6 9 5 9 10 8 22 26 20
7 3 3 16 16 10 8 8 5 7 6 4 5 3 4 5 6 5 7 3 7 5 19 5 4 1 3 6 10 4 5 2 4 5 5 2 8 8 10 9 9 8 8 8 9
8 1 8 15 7 6 10 7 8 4 6 10 5 5 7 7 5 6 10 8 16 10 10 8 4 7 11 3 3 3 6 8 5 5 3 2 16 4 6 6 5 10 3 2 4
6 9 6 21 5 8 3 5 6 2 3 7 4 9 6 11 9 10 6 6 13 10 11 8 4 1 7 2 2 5 5 7 3 3 10 7 16 2 4 5 5 7 5 4 7
9 2 12 15 10 6 7 6 6 4 16 17 10 7 9 3 7 5 5 5 18 19 20 15 5 9 13 5 5 6 7 9 13 4 18 11 32 17 3 5 9 12 11 11 11
14 7 9 5 11 5 1 3 11 10 12 8 6 17 19 14 18 21 19 15 8 9 8 10 12 8 20 10 3 4 6 14 17 25 12 31 18 31 12 10 21 33 35 38 37
7 6 7 3 6 14 10 16 15 9 1 3 15 15 9 14 17 19 8 14 15 3 9 5 9 12 21 21 20 19 9 10 21 21 20 29 26 29 26 24 17 28 37 40 40
20 13 7 8 4 7 10 14 16 9 13 20 12 11 11 10 8 9 15 16 14 3 3 6 7 8 21 21 13 11 25 27 21 18 21 19 32 19 18 14 20 32 38 39 39
Wind_Direction
179 170 168 172 185 194 196 208 224 217 241 258 275 287 287 289 280 260 220 212 208 192 198 187 155 152 139 146 128 130 69 187 217 161 229 168 175 181 190 182 185 199 205 188 182
180 183 174 169 169 182 214 232 254 285 281 290 299 294 286 285 279 243 223 216 215 200 202 185 159 147 123 115 97 103 125 215 204 193 209 186 189 175 173 186 215 221 220 210 193
191 189 191 187 174 173 182 235 287 290 304 310 302 299 301 281 238 216 221 221 222 204 200 178 159 145 109 114 80 123 183 195 209 215 204 185 207 182 168 225 220 226 224 219 208
221 213 218 219 220 190 179 198 285 307 308 307 306 299 295 244 184 195 213 213 206 199 194 172 156 130 101 123 118 120 199 174 167 199 161 175 180 211 207 219 234 240 238 232 221
249 237 234 248 252 254 246 218 223 269 302 306 311 308 286 233 222 183 166 181 196 187 188 169 161 139 142 142 127 141 191 196 222 211 223 188 209 225 237 235 239 246 232 234 230
237 256 254 247 253 262 267 267 257 256 267 286 303 307 299 252 227 199 182 158 181 177 165 155 159 143 121 125 138 152 173 196 234 232 237 218 232 236 244 238 242 242 243 237 235
255 247 254 257 261 261 268 271 273 274 266 275 294 302 272 255 230 207 202 185 168 163 152 141 140 131 140 123 124 111 232 327 235 248 275 260 293 238 243 248 245 244 243 241 238
291 282 264 264 258 264 266 268 275 276 279 282 277 295 262 231 216 210 205 194 186 169 153 142 136 125 114 126 44 65 50 50 265 177 249 153 262 273 280 248 248 250 250 246 242
262 262 261 271 282 286 282 271 266 271 277 279 288 272 245 232 216 204 196 189 182 172 158 152 146 102 119 89 20 7 213 211 314 203 157 174 260 266 288 256 258 256 250 250 250
253 264 255 258 266 334 337 307 273 263 264 274 262 277 237 206 203 204 199 193 180 171 138 144 101 72 40 102 218 205 198 246 250 209 188 238 261 269 265 275 273 275 266 253 251
241 236 239 256 259 268 40 3 258 242 227 217 170 235 294 213 185 193 194 182 158 160 141 79 101 196 214 183 139 134 161 218 246 241 198 234 258 262 266 271 266 262 260 259 257
219 232 238 242 248 257 339 50 55 1 307 256 247 245 251 221 226 192 181 171 162 153 120 50 209 224 120 161 149 157 157 254 285 225 188 274 266 269 246 254 254 257 262 261 258
245 226 228 231 253 249 269 330 6 360 302 277 247 242 234 234 231 206 185 175 137 134 184 172 201 132 145 158 164 197 179 217 227 339 249 331 279 260 276 247 253 256 259 261 258
243 213 222 242 249 253 257 256 171 30 351 269 229 231 215 209 248 221 193 181 170 186 162 220 195 147 171 190 155 228 207 166 164 66 257 91 287 282 251 252 237 254 254 255 255
254 237 213 209 215 223 231 226 236 119 287 317 205 265 183 184 155 188 187 206 171 174 141 228 172 172 177 196 159 224 125 158 129 161 351 195 276 246 165 269 254 252 256 257 260
239 239 229 221 222 200 220 171 153 82 234 268 166 143 108 350 48 104 169 175 132 118 287 237 172 165 193 116 151 149 79 55 58 91 281 180 175 253 193 221 254 259 269 268 275
235 234 229 205 168 225 186 158 182 195 83 215 201 178 151 171 118 101 159 176 164 144 222 136 215 193 152 92 51 148 114 290 321 48 237 9 193 258 277 230 228 253 272 279 276
238 227 226 212 212 193 200 165 220 218 221 37 96 95 170 162 192 142 132 205 257 132 125 189 259 167 189 191 167 201 166 172 205 197 255 11 236 251 240 268 256 258 261 267 270
245 241 236 207 204 202 185 222 215 185 210 151 100 129 226 207 152 152 188 216 206 177 190 167 265 256 143 140 152 194 213 205 93 96 26 224 277 286 259 275 265 257 260 264 267
241 254 253 203 196 199 217 240 234 171 145 187 199 190 200 203 177 179 180 203 212 190 170 216 276 159 305 116 21 168 167 83 357 192 246 265 265 234 276 252 260 257 259 261 260
218 251 161 192 184 174 220 233 223 217 262 240 215 279 206 191 194 215 208 244 204 194 192 165 169 229 131 212 173 144 204 152 145 161 190 272 261 213 221 238 263 273 286 283 222
183 199 179 174 156 199 221 200 233 248 200 235 291 291 224 180 205 234 223 216 182 145 168 205 181 239 216 227 222 297 230 167 152 216 237 186 266 171 219 257 239 270 262 226 174
197 215 197 182 192 212 234 250 236 232 211 202 246 217 230 229 238 204 225 218 184 167 169 182 197 332 321 351 350 233 204 198 106 70 214 191 259 352 336 299 354 284 252 275 257
171 186 225 216 236 196 212 248 245 228 232 245 264 243 259 273 246 315 288 250 208 204 215 173 165 193 232 204 136 194 200 195 198 187 243 222 253 249 36 346 322 292 279 285 270
186 212 188 201 233 209 197 230 232 229 219 235 246 229 242 259 263 270 265 264 284 244 209 181 217 226 245 244 180 233 210 198 210 232 226 250 242 258 247 241 263 274 286 290 285
207 179 185 207 183 212 206 233 230 221 235 255 230 254 283 247 242 264 288 248 235 297 193 211 235 206 245 238 235 238 224 229 225 229 238 251 258 259 258 260 243 254 256 263 270
226 236 198 202 168 170 212 235 242 218 251 241 266 277 295 286 341 336 332 300 268 276 342 316 228 191 239 235 230 237 229 230 233 228 220 235 243 255 263 239 245 257 257 259 264
Height
1523 1523 1525 1528 1529 1530 1531 1532 1534 1532 1532 1532 1533 1533 1534 1534 1535 1535 1536 1538 1538 1537 1541 1540 1539 1542 1542 1544 1546 1547 1561 1568 1561 1565 1554 1553 1555 1555 1556 1557 1558 1558 1559 1560 1561
1523 1524 1524 1525 1526 1529 1531 1532 1531 1531 1532 1532 1530 1532 1533 1532 1533 1534 1536 1536 1536 1537 1540 1538 1539 1540 1542 1544 1546 1547 1561 1557 1552 1551 1551 1552 1553 1553 1556 1556 1556 1556 1556 1558 1559
1524 1525 1526 1526 1526 1527 1529 1529 1529 1530 1529 1529 1531 1531 1531 1531 1533 1533 1534 1534 1535 1536 1539 1537 1538 1540 1542 1545 1547 1549 1554 1550 1548 1549 1550 1550 1552 1552 1552 1555 1551 1550 1553 1555 1557
1524 1524 1526 1527 1527 1526 1526 1527 1528 1528 1529 1530 1530 1530 1530 1531 1536 1531 1533 1533 1534 1535 1537 1535 1537 1539 1542 1546 1546 1550 1549 1548 1548 1548 1549 1549 1549 1549 1549 1547 1548 1549 1551 1552 1553
1523 1523 1523 1525 1526 1526 1526 1525 1526 1527 1528 1530 1530 1529 1530 1530 1531 1531 1532 1531 1534 1534 1535 1534 1537 1539 1543 1545 1546 1548 1548 1548 1548 1548 1548 1548 1548 1547 1544 1545 1546 1547 1547 1549 1550
1520 1522 1523 1523 1524 1525 1526 1526 1526 1527 1528 1529 1529 1529 1529 1530 1530 1530 1530 1532 1533 1534 1533 1533 1536 1537 1542 1545 1546 1547 1547 1547 1547 1547 1546 1546 1546 1546 1539 1540 1542 1543 1544 1545 1546
1519 1520 1521 1522 1523 1524 1525 1526 1526 1526 1526 1527 1527 1527 1527 1529 1528 1528 1530 1531 1533 1533 1532 1533 1535 1537 1542 1545 1546 1547 1548 1546 1545 1546 1545 1545 1546 1539 1538 1537 1538 1538 1540 1541 1542
1518 1519 1519 1520 1521 1522 1523 1523 1524 1525 1525 1525 1525 1526 1525 1525 1525 1527 1529 1531 1532 1532 1532 1534 1535 1537 1542 1545 1547 1550 1552 1553 1545 1544 1544 1546 1550 1532 1534 1534 1533 1534 1535 1535 1536
1516 1518 1519 1519 1520 1520 1521 1522 1522 1523 1524 1524 1526 1525 1523 1522 1523 1525 1527 1529 1531 1531 1532 1534 1536 1540 1544 1550 1557 1557 1557 1557 1550 1544 1544 1546 1543 1531 1531 1531 1530 1529 1529 1530 1530
1515 1516 1518 1519 1519 1519 1519 1520 1520 1521 1521 1522 1523 1527 1521 1519 1519 1522 1525 1527 1529 1531 1532 1534 1536 1544 1548 1552 1562 1556 1557 1557 1553 1545 1545 1546 1540 1532 1529 1528 1527 1525 1524 1523 1523
1510 1513 1517 1518 1518 1518 1519 1518 1521 1521 1518 1517 1518 1518 1517 1518 1519 1519 1522 1524 1527 1530 1534 1535 1542 1548 1541 1545 1546 1550 1550 1550 1548 1543 1544 1542 1538 1528 1526 1524 1520 1517 1516 1515 1514
1505 1509 1512 1514 1515 1517 1517 1517 1517 1519 1516 1514 1514 1515 1516 1517 1518 1517 1519 1523 1525 1531 1533 1540 1544 1534 1538 1543 1545 1548 1551 1552 1546 1543 1545 1539 1534 1522 1520 1514 1508 1507 1505 1504 1505
1502 1504 1507 1510 1512 1515 1516 1517 1517 1517 1517 1510 1510 1510 1512 1515 1514 1514 1517 1517 1521 1530 1533 1537 1532 1531 1536 1544 1547 1549 1551 1550 1547 1543 1543 1543 1535 1522 1507 1503 1500 1497 1493 1495 1493
1501 1499 1503 1508 1513 1510 1513 1514 1517 1518 1522 1510 1506 1503 1504 1508 1509 1510 1514 1517 1519 1523 1530 1531 1527 1530 1536 1539 1540 1547 1540 1541 1544 1549 1554 1543 1543 1520 1506 1496 1493 1486 1484 1481 1481
1498 1500 1502 1506 1506 1508 1513 1513 1516 1519 1527 1504 1501 1501 1501 1505 1503 1506 1510 1512 1517 1518 1522 1519 1524 1528 1531 1529 1533 1537 1538 1542 1545 1551 1553 1547 1549 1509 1503 1497 1488 1477 1473 1474 1476
1497 1498 1500 1503 1505 1505 1509 1512 1518 1526 1522 1500 1497 1499 1504 1503 1503 1505 1509 1512 1513 1516 1517 1517 1517 1519 1518 1523 1526 1533 1539 1546 1555 1556 1559 1536 1538 1475 1500 1487 1478 1470 1467 1467 1470
1494 1496 1498 1501 1503 1505 1508 1513 1518 1512 1498 1496 1496 1496 1498 1503 1505 1506 1509 1511 1514 1523 1520 1519 1517 1514 1515 1525 1529 1529 1537 1553 1559 1569 1542 1539 1536 1469 1483 1476 1471 1467 1460 1463 1467
1491 1493 1495 1498 1501 1502 1506 1511 1513 1499 1499 1493 1494 1497 1497 1500 1502 1505 1509 1512 1508 1509 1518 1518 1519 1512 1506 1506 1518 1529 1526 1542 1554 1558 1538 1542 1526 1484 1470 1467 1465 1461 1460 1461 1461
1487 1489 1490 1496 1499 1501 1504 1501 1498 1497 1491 1494 1494 1497 1498 1498 1500 1502 1507 1507 1501 1503 1507 1516 1513 1503 1502 1502 1504 1523 1526 1513 1526 1577 1555 1517 1496 1473 1466 1462 1459 1454 1453 1455 1458
1485 1487 1486 1492 1495 1499 1501 1494 1490 1487 1489 1492 1492 1492 1497 1499 1500 1501 1503 1491 1493 1492 1494 1499 1508 1503 1503 1502 1504 1504 1508 1526 1537 1543 1556 1508 1500 1475 1461 1457 1451 1451 1449 1450 1452
1484 1485 1484 1486 1493 1498 1495 1489 1485 1486 1491 1490 1488 1490 1490 1495 1496 1501 1491 1486 1485 1487 1490 1494 1501 1506 1504 1503 1502 1508 1509 1512 1515 1523 1528 1531 1478 1459 1454 1451 1451 1447 1447 1447 1446
1481 1485 1483 1484 1491 1489 1487 1481 1481 1485 1487 1489 1490 1486 1485 1490 1492 1494 1488 1476 1475 1482 1489 1488 1495 1501 1499 1493 1495 1495 1491 1496 1506 1520 1526 1521 1459 1448 1449 1449 1447 1447 1447 1448 1448
1479 1480 1481 1481 1484 1480 1477 1476 1480 1481 1482 1484 1484 1481 1480 1482 1487 1484 1481 1476 1475 1477 1483 1484 1492 1517 1497 1495 1495 1496 1491 1487 1496 1503 1502 1499 1451 1447 1446 1448 1446 1447 1447 1448 1448
1476 1479 1477 1476 1473 1473 1477 1477 1480 1478 1479 1482 1480 1481 1483 1482 1478 1480 1480 1476 1472 1472 1471 1474 1481 1484 1474 1474 1478 1488 1485 1483 1482 1500 1466 1482 1440 1445 1448 1447 1446 1445 1445 1445 1446
1467 1467 1466 1472 1468 1471 1474 1474 1472 1476 1475 1477 1476 1476 1477 1480 1478 1474 1478 1478 1476 1469 1469 1469 1474 1480 1464 1469 1471 1474 1472 1473 1475 1462 1474 1443 1458 1418 1445 1447 1447 1445 1442 1440 1438
1459 1460 1462 1463 1462 1468 1473 1464 1471 1474 1475 1472 1472 1473 1475 1474 1472 1467 1468 1466 1464 1468 1462 1462 1465 1469 1465 1462 1462 1466 1470 1471 1462 1455 1459 1448 1449 1421 1434 1436 1438 1439 1435 1433 1433
1454 1454 1456 1455 1460 1463 1458 1457 1460 1471 1467 1470 1472 1474 1476 1473 1470 1469 1470 1468 1469 1469 1471 1467 1460 1460 1450 1449 1460 1463 1451 1443 1451 1447 1442 1448 1416 1424 1426 1426 1429 1429 1426 1425 1426